Location: Claremont
(33.9858°S, 18.4575°E)
Time: 05:36:32
(UTC+00:00)

Cosmos 1733 Rocket - Pass Details

Date: 03 March 2021
Orbit: 604 x 627 km, 82.5° (Epoch: 17 April)

Event Time Altitude Azimuth Distance (km) Brightness Sun altitude
Rises 18:13:28 0° 182° (S) 2,904 6.8 -11.7°
Reaches altitude 10° 18:15:45 10° 177° (S) 1,988 5.8 -12.2°
Maximum altitude 18:20:04 55° 99° (E) 737 3.1 -13.0°
Drops below altitude 10° 18:24:19 10° 20° (NNE) 1,953 5.3 -13.9°
Enters shadow 18:24:55 - 18° (NNE) 2,187 5.5 -14.0°
